FW1299 Weather Reports


time (UTC)temp
C
wind
direction
speed
KPH
gust
KPH
rain 1hr
cm
rain 24hr
cm
rain mn
cm
humidity
%
barometer
mb
20260507000126 19 129 0.0 3.2 0.00 0.20 0.20 87 1007.4
20260506235127 19 243 0.0 1.6 0.00 0.20 0.20 87 1007.5
20260506234127 19 256 0.0 1.6 0.00 0.20 0.20 87 1007.4
20260506233126 19 256 0.0 3.2 0.00 0.20 0.20 86 1007.3
20260506232125 19 252 1.6 9.7 0.00 0.20 0.20 86 1007.4
20260506230125 20 219 1.6 6.4 0.00 0.20 0.20 85 1007.2
20260506225127 20 231 1.6 6.4 0.00 0.20 0.20 85 1007.2
20260506224124 20 284 1.6 8.0 0.00 0.20 0.20 86 1007.1
20260506223124 19 203 1.6 8.0 0.00 0.20 0.20 87 1007.2
20260506222124 19 228 1.6 8.0 0.00 0.20 0.20 87 1007.3
20260506221123 19 239 1.6 6.4 0.00 0.20 0.20 87 1007.2
20260506220126 19 228 1.6 8.0 0.00 0.20 0.20 87 1007.1
20260506215121 19 228 3.2 6.4 0.00 0.20 0.20 87 1007.1
20260506214121 18 193 3.2 9.7 0.00 0.20 0.20 87 1007.1
20260506213122 18 256 1.6 9.7 0.00 0.20 0.20 87 1007.0
20260506212122 18 215 4.8 12.9 0.00 0.20 0.20 87 1007.0
20260506211120 18 247 3.2 12.9 0.00 0.20 0.20 88 1006.9
20260506205120 18 266 3.2 12.9 0.00 0.20 0.20 88 1006.8
20260506204120 18 221 3.2 12.9 0.00 0.20 0.20 88 1006.7
20260506203121 18 148 1.6 9.7 0.00 0.20 0.20 90 1006.6
20260506202121 18 248 1.6 8.0 0.00 0.20 0.20 92 1006.7
20260506201121 17 196 1.6 6.4 0.00 0.20 0.20 92 1006.7
20260506200121 17 191 1.6 9.7 0.00 0.20 0.20 93 1006.9
20260506194121 17 152 3.2 9.7 0.00 0.20 0.20 94 1007.2
20260506193112 17 268 4.8 16.1 0.00 0.20 0.20 93 1007.4
20260506191110 17 223 1.6 6.4 0.03 0.20 0.20 94 1007.4
20260506190108 17 157 1.6 8.0 0.03 0.20 0.20 94 1007.5
20260506184108 17 250 4.8 14.5 0.03 0.20 0.20 94 1007.6
20260506183110 17 249 3.2 14.5 0.03 0.20 0.20 93 1007.7
20260506182110 17 233 3.2 16.1 0.03 0.20 0.20 92 1007.6
20260506181110 17 233 4.8 17.7 0.00 0.18 0.18 91 1007.8
20260506180110 18 140 0.0 4.8 0.00 0.18 0.18 91 1007.7
20260506174108 18 197 1.6 8.0 0.03 0.18 0.18 91 1008.0
20260506164110 17 203 1.6 6.4 0.15 0.15 0.15 92 1008.6
20260506162109 17 231 0.0 3.2 0.13 0.13 0.13 91 1009.1
20260506161112 17 214 0.0 8.0 0.10 0.10 0.10 90 1009.3
20260506160104 17 170 1.6 9.7 0.08 0.08 0.08 87 1009.5
20260506155103 18 200 1.6 9.7 0.03 0.03 0.03 84 1009.3
20260506154104 19 176 1.6 9.7 0.00 0.00 0.00 80 1009.3
20260506153103 20 229 3.2 14.5 0.00 0.00 0.00 79 1009.1
20260506152104 20 305 1.6 8.0 0.00 0.00 0.00 79 1009.3
20260506151102 20 276 1.6 11.3 0.00 0.00 0.00 77 1009.1
20260506145103 20 262 8.0 20.9 0.00 0.00 0.00 74 1009.6
20260506144103 21 175 4.8 17.7 0.00 0.00 0.00 73 1009.7
20260506143058 21 229 8.0 20.9 0.00 0.00 0.00 73 1009.6
20260506142058 21 240 8.0 22.5 0.00 0.00 0.00 73 1009.7
20260506141058 20 278 4.8 24.1 0.00 0.00 0.00 75 1009.5
20260506140100 20 229 4.8 16.1 0.00 0.00 0.00 75 1009.6
20260506135058 20 245 6.4 17.7 0.00 0.00 0.00 75 1009.5
20260506134059 20 240 4.8 19.3 0.00 0.00 0.00 74 1009.5
20260506133058 20 258 4.8 24.1 0.00 0.00 0.00 75 1009.8
20260506132100 20 98 6.4 20.9 0.00 0.00 0.00 74 1009.6
20260506131059 20 226 4.8 17.7 0.00 0.00 0.00 76 1009.6
20260506130100 20 252 4.8 14.5 0.00 0.00 0.00 76 1009.7
20260506125058 20 320 4.8 17.7 0.00 0.00 0.00 77 1009.3
20260506124059 20 135 4.8 17.7 0.00 0.00 0.00 78 1009.3
20260506122100 19 277 3.2 19.3 0.00 0.00 0.00 78 1009.6
20260506120056 18 219 3.2 20.9 0.00 0.00 0.00 79 1009.7
20260506115055 18 138 4.8 17.7 0.00 0.00 0.00 79 1009.7
20260506114057 18 281 3.2 17.7 0.00 0.00 0.00 79 1010.0
20260506113058 18 283 3.2 17.7 0.00 0.00 0.00 80 1009.9
20260506112057 18 174 1.6 9.7 0.00 0.00 0.00 81 1009.9
20260506111056 18 142 3.2 14.5 0.00 0.00 0.00 82 1009.9
20260506110057 18 144 3.2 24.1 0.00 0.00 0.00 82 1009.8
20260506105057 17 203 3.2 17.7 0.00 0.00 0.00 83 1009.7
20260506104049 17 152 3.2 11.3 0.00 0.00 0.00 84 1009.6
20260506103049 17 127 1.6 9.7 0.00 0.00 0.00 84 1009.6
20260506102045 17 233 3.2 11.3 0.00 0.00 0.00 84 1009.8
20260506101045 17 180 1.6 9.7 0.00 0.00 0.00 84 1009.6
20260506095045 17 136 3.2 11.3 0.00 0.00 0.00 84 1009.4
20260506094041 17 212 1.6 12.9 0.00 0.00 0.00 84 1009.3
20260506093042 17 306 1.6 11.3 0.00 0.00 0.00 84 1009.5
20260506092042 17 269 3.2 17.7 0.00 0.00 0.00 83 1009.3
20260506090036 17 139 1.6 16.1 0.00 0.00 0.00 83 1009.5
20260506085037 17 207 3.2 12.9 0.00 0.00 0.00 83 1009.5
20260506084035 17 237 3.2 14.5 0.00 0.00 0.00 83 1009.6
20260506083035 17 217 1.6 14.5 0.00 0.00 0.00 83 1009.6
20260506082035 18 139 3.2 14.5 0.00 0.00 0.00 83 1009.6
20260506081034 18 259 3.2 11.3 0.00 0.00 0.00 83 1009.6
20260506073031 18 252 1.6 11.3 0.00 0.00 0.00 81 1009.7
20260506062033 18 232 3.2 12.9 0.00 0.00 0.00 78 1010.0
20260506061029 18 201 1.6 12.9 0.00 0.00 0.00 78 1010.0
20260506051030 19 250 1.6 9.7 0.00 0.00 0.00 74 1010.3
20260506045031 20 177 3.2 12.9 0.00 0.00 0.00 73 1010.3
20260506044030 20 188 1.6 8.0 0.00 0.00 0.00 72 1010.4
20260506042033 20 147 1.6 11.3 0.00 0.00 0.00 72 1010.4
20260506041030 20 212 1.6 12.9 0.00 0.00 0.00 71 1010.3
20260506040035 20 136 3.2 12.9 0.00 0.00 0.00 70 1010.3
20260506035025 20 165 3.2 9.7 0.00 0.00 0.00 70 1010.4
20260506033028 20 130 1.6 9.7 0.00 0.00 0.00 69 1010.3
20260506032024 20 158 3.2 12.9 0.00 0.00 0.00 68 1010.3
20260506031024 20 147 3.2 12.9 0.00 0.00 0.00 68 1010.2
20260506030028 20 184 1.6 16.1 0.00 0.00 0.00 68 1010.3
20260506025028 20 207 1.6 6.4 0.00 0.00 0.00 67 1010.2
20260506024028 20 211 1.6 11.3 0.00 0.00 0.00 66 1010.4
20260506023030 21 190 1.6 14.5 0.00 0.00 0.00 65 1010.4
20260506022012 21 162 0.0 9.7 0.00 0.00 0.00 64 1010.4
20260506021018 21 148 1.6 8.0 0.00 0.00 0.00 64 1010.4
20260506020012 21 160 3.2 16.1 0.00 0.00 0.00 63 1010.3
20260506015012 22 150 3.2 14.5 0.00 0.00 0.00 62 1010.3
20260506014011 22 186 4.8 14.5 0.00 0.00 0.00 61 1010.1
20260506013012 22 169 6.4 20.9 0.00 0.00 0.00 60 1010.1
20260506012019 22 207 4.8 19.3 0.00 0.00 0.00 59 1010.1
20260506011012 22 314 4.8 19.3 0.00 0.00 0.00 57 1009.8
20260506010012 23 49 4.8 19.3 0.00 0.00 0.00 56 1009.7
20260506004006 23 188 4.8 12.9 0.00 0.00 0.00 51 1009.3
20260506003007 24 165 3.2 12.9 0.00 0.00 0.00 49 1009.1
20260506002006 24 160 4.8 14.5 0.00 0.00 0.00 48 1009.3
20260506001006 25 149 1.6 14.5 0.00 0.00 0.00 48 1009.0